Weather Roundup
Issued by NWS Springfield, MO

Home | Current Version | Previous Version | Text Only | Print | Product List | Glossary On
Versions: 1 2 3 4 5 6 7 8 9 10 11 12 13 14 15 16 17 18 19 20 21 22 23 24 25 26 27 28 29 30 31 32 33 34 35 36 37 38 39 40 41 42 43 44 45 46 47 48 49 50
000
NZUS99 KSGF 161707
HRRSGF

HOURLY WEATHER
NATIONAL WEATHER SERVICE SPRINGFIELD MO
1200 PM CDT TUE SEP 16 2014

......SGF CWA......

CITY           SKY/WX    TMP DP  RH WIND       PRES   REMARKS
SPRINGFIELD    CLOUDY    68  57  68 E7        30.18S
JOPLIN         CLOUDY    63  60  90 NE7       30.18F FOG
WEST PLAINS    CLOUDY    65  56  72 NE8       30.20S
ROLLA          CLOUDY    59  55  87 N3        30.19F
OSAGE BEACH    CLOUDY    61  54  77 E5        30.20F
BRANSON        CLOUDY    66  61  82 E6        30.19S

......SURROUNDING SGF CWA......

CITY           SKY/WX    TMP DP  RH WIND       PRES   REMARKS
CHANUTE        CLOUDY    69  58  67 NE6       30.19F
PARSONS          N/A     67  58  72 NE7       30.19F
COFFEYVILLE    CLOUDY    64  58  80 NE6       30.18F
EMPORIA        SUNNY     65  51  60 E6        30.19F
GROVE OK       CLOUDY    70  70 100 N6        30.16F
ROGERS AR      CLOUDY    69  66  90 E3        30.17F
SILOAM SPRINGS CLOUDY    73  66  78 CALM      30.16F
HARRISON AR    CLOUDY    66  65  96 E5        30.18S FOG
NEAR YELLVILLE CLOUDY    66  57  72 E7        30.17F

......KANSAS AND MISSOURI......

CITY           SKY/WX    TMP DP  RH WIND       PRES   REMARKS
KANSAS CTY INT MOSUNNY   62  51  67 SE6       30.21F
DOWNTOWN KC    SUNNY     65  50  58 NE6       30.20F
COLUMBIA       MOSUNNY   66  54  65 NW7       30.21F
SEDALIA        CLOUDY    64  54  69 VRB3      30.21F
ST JOSEPH      SUNNY     62  50  64 S7        30.22F
ST LOUIS       CLOUDY    62  53  72 N3        30.22S
SPIRIT OF STL  CLOUDY    62  55  77 NE5       30.21S
KIRKSVILLE     MOSUNNY   62  47  57 VRB3      30.23F
WICHITA        CLOUDY    68  53  58 E5        30.18F
TOPEKA         SUNNY     65  51  60 E5        30.20F
OLATHE         SUNNY     63  53  70 NE5       30.19F

......TENNESSEE......

CITY           SKY/WX    TMP DP  RH WIND       PRES   REMARKS
MEMPHIS        CLOUDY    73  66  78 NE7       30.12F
NASHVILLE      CLOUDY    68  63  84 N9        30.13F

......ARKANSAS.......

CITY           SKY/WX    TMP DP  RH WIND       PRES   REMARKS
FAYETTEVILLE   CLOUDY    75  70  84 NW7       30.15F
FT SMITH       CLOUDY    80  68  66 MISG      30.12F
LITTLE ROCK    CLOUDY    77  67  71 VRB3      30.13S

......OKLAHOMA.......

CITY           SKY/WX    TMP DP  RH WIND       PRES   REMARKS
TULSA          CLOUDY    70  61  73 N8        30.14F
PONCA CITY     CLOUDY    67  59  75 NE8       30.17F
MCALESTER      SUNNY     83  70  64 CALM      30.13F
OKLAHOMA CITY  PTSUNNY   82  69  64 NE3       30.14F

......IOWA............

CITY           SKY/WX    TMP DP  RH WIND       PRES   REMARKS
DES MOINES     MOSUNNY   62  44  51 SW5       30.21F
QUAD CITIES    SUNNY     63  41  44 NW6       30.22F

......ILLINOIS........

CITY           SKY/WX    TMP DP  RH WIND       PRES   REMARKS
QUINCY         MOSUNNY   61  46  57 CALM      30.22F
CHICAGO        MOSUNNY   60  40  47 CALM      30.19F




USA.gov is the U.S. government's official web portal to all federal, state and local government web resources and services.